Location: *
(52.2090°N, 4.1550°W)
Time: 05:03:37
(UTC+00:00)

Cosmos 192 - Pass Details

Date: 19 July 2019
Orbit: 702 x 713 km, 74.0° (Epoch: 21 August)

Event Time Altitude Azimuth Distance (km) Brightness Sun altitude
Rises 23:32:34 0° 334° (NNW) 3,118 9.2 -16.2°
Reaches altitude 10° 23:34:54 10° 335° (NNW) 2,193 8.1 -16.3°
Maximum altitude 23:39:52 88° 65° (ENE) 715 4.3 -16.4°
Enters shadow 23:42:30 28° 155° (SSE) 1,311 5.2 -16.5°
